Vorticity
6 6 6 9 15 20 22 20 17 13 11 9 9 8 7 6 6 6 7 7 7 6 6 6 6 6 6 7 6 4 3 2 2 2 3 4 5 5 5 6 5 4 2 2 2 2 1 -1 -2 -2 -2 -2 -0 2 4 7 8 7 6 5 5 5 5 5 3 2 2 3 6
6 6 7 10 16 20 22 20 17 14 11 10 9 8 7 6 6 6 6 7 7 6 6 6 6 6 7 7 6 4 3 2 2 3 4 5 6 6 6 6 5 4 3 3 2 2 1 0 -1 -2 -2 -1 -0 2 5 9 9 8 6 5 5 5 5 4 3 2 2 2 6
6 6 8 12 17 21 22 20 17 14 12 11 9 8 7 6 6 6 6 6 6 6 6 6 7 7 7 6 6 5 4 2 3 4 6 6 6 7 7 6 6 5 4 3 3 3 3 2 1 0 -1 -1 0 3 7 10 10 8 7 6 6 5 4 3 2 1 1 2 6
6 7 10 14 19 22 22 20 16 14 12 11 10 8 6 6 6 6 6 6 6 6 6 7 8 8 8 7 5 4 4 4 5 6 7 8 8 8 8 8 7 6 5 4 4 4 3 2 1 -0 -1 -2 1 5 8 10 10 8 6 6 5 4 4 3 2 1 1 2 6
8 10 13 18 21 22 21 19 16 14 13 11 10 8 6 6 6 6 6 6 6 6 7 8 8 8 7 7 5 4 4 5 6 7 8 8 8 9 9 9 9 7 6 4 3 1 -0 -2 -3 -4 -4 -2 3 7 10 11 9 7 6 5 4 4 3 3 2 1 1 2 7
11 14 18 21 22 21 20 18 15 14 12 11 10 8 7 6 6 6 6 6 6 7 8 8 8 7 6 6 6 5 5 6 7 7 8 8 8 9 10 10 9 7 4 2 -1 -3 -5 -7 -7 -6 -4 1 7 10 12 10 7 6 5 4 4 3 3 3 1 0 1 2 8
14 17 19 21 21 20 18 16 14 13 12 11 10 8 7 6 6 6 7 7 7 7 7 7 7 7 6 6 6 6 6 6 6 6 6 7 8 9 10 9 7 4 1 -3 -5 -7 -7 -8 -7 -4 1 8 12 13 11 7 6 4 4 3 3 4 4 3 1 0 1 3 10
16 17 18 19 18 17 16 14 14 13 12 11 9 8 7 6 7 7 7 7 7 7 7 7 7 7 8 8 7 7 5 4 4 5 6 8 9 10 9 7 3 0 -3 -6 -6 -7 -7 -6 -2 3 10 15 15 11 7 5 4 3 3 3 4 4 4 2 0 -0 1 5 12
16 16 17 16 16 15 14 14 13 13 12 11 9 8 7 7 7 8 8 8 8 8 8 8 9 9 9 9 7 4 2 2 3 5 8 10 10 9 7 3 -1 -4 -5 -5 -5 -5 -4 -1 5 11 16 16 12 7 4 3 3 3 3 4 4 4 4 2 0 0 2 8 16
15 16 16 15 15 14 14 14 14 14 13 11 9 8 7 8 8 9 9 8 8 7 8 8 8 8 6 4 1 -0 -0 2 5 7 10 11 10 7 4 0 -2 -2 -2 -2 -3 -3 -1 5 11 15 15 11 6 3 2 2 2 3 4 5 6 5 3 0 -0 1 5 12 19
16 16 15 15 15 15 15 16 16 15 13 11 9 8 7 7 6 5 5 4 4 4 4 3 2 0 -1 -3 -2 -0 2 6 10 12 12 11 8 4 1 -1 -1 -0 -1 -2 -3 -0 5 11 13 12 9 5 2 1 1 1 2 4 5 7 7 5 2 -1 -0 3 8 16 20
17 16 16 16 16 17 17 18 17 15 13 10 8 7 6 4 3 3 3 3 3 2 1 0 -1 -1 -1 -0 2 5 8 12 14 14 13 9 4 1 -2 -2 -2 -3 -4 -5 -0 6 11 14 12 8 4 1 0 0 0 2 3 5 7 8 7 4 1 -2 0 5 12 20 20
18 18 18 18 18 18 18 18 16 14 12 9 8 6 5 4 4 4 4 4 4 4 3 3 3 4 5 7 9 11 13 14 14 12 9 4 0 -3 -5 -6 -7 -7 -5 2 9 13 14 12 8 4 1 -1 -1 -0 1 3 5 7 8 8 6 3 0 -1 3 9 16 22 19
19 19 19 19 19 18 18 17 15 12 10 8 7 6 5 5 6 6 6 7 7 7 8 9 11 12 13 13 12 12 12 11 9 6 2 -2 -6 -9 -11 -11 -7 -0 8 16 17 15 12 7 4 1 -0 -2 -2 0 2 5 7 8 9 7 4 1 -0 1 7 14 20 21 15
19 19 18 18 17 17 16 14 13 10 9 7 6 6 6 6 6 6 7 8 10 11 13 14 15 15 15 14 13 12 10 7 3 -2 -7 -11 -12 -11 -7 -1 9 16 20 20 15 11 7 4 1 -1 -2 -2 -1 2 4 7 9 9 8 5 2 -0 1 5 13 19 21 17 10
17 17 17 16 15 14 13 12 11 9 8 7 6 6 7 7 8 8 10 11 12 13 13 13 12 12 12 12 10 6 1 -4 -10 -13 -13 -10 -2 7 15 20 20 18 15 11 9 7 4 1 -1 -2 -2 -1 2 4 7 9 10 8 6 3 1 1 4 11 18 20 18 11 7
15 16 15 14 13 12 11 10 9 8 7 6 6 7 7 8 9 10 11 11 10 8 6 3 1 -1 -2 -4 -7 -10 -12 -13 -10 -5 2 8 14 18 19 17 13 10 8 7 6 4 1 -1 -2 -1 1 2 4 7 8 10 9 7 4 1 1 4 10 17 20 17 12 7 5
13 13 13 13 12 11 10 9 8 8 8 7 6 6 5 5 5 4 2 -1 -5 -8 -11 -12 -12 -12 -11 -10 -8 -4 -0 4 8 12 13 13 11 8 6 6 7 8 8 8 5 2 -1 -3 -1 1 3 5 7 9 10 9 7 4 2 1 4 10 16 21 18 13 7 5 4
11 11 12 12 12 11 10 9 8 8 8 8 7 7 6 4 2 -0 -4 -7 -8 -9 -8 -6 -3 -0 3 7 10 13 16 16 13 10 7 5 4 4 5 7 8 9 10 8 5 1 -1 -2 -0 2 4 7 9 10 9 8 5 2 2 4 9 15 19 19 13 8 5 4 5
14 14 14 14 13 13 12 12 10 9 8 7 8 8 7 6 4 2 1 1 3 4 6 7 8 10 11 12 11 10 10 8 6 5 5 5 6 8 9 10 10 11 10 7 4 1 -1 -1 1 4 6 8 9 9 7 5 3 3 5 9 15 18 18 13 8 6 5 5 6
18 19 19 19 19 19 18 16 14 12 10 8 8 8 8 6 5 5 5 6 6 6 6 6 6 6 6 6 6 5 5 5 6 7 8 10 11 12 12 11 11 10 8 6 4 2 1 2 3 6 8 9 8 7 5 3 3 5 10 15 18 17 13 8 6 4 4 5 6
16 17 18 19 19 19 18 16 14 12 10 9 9 9 8 8 8 8 8 7 7 7 7 7 7 7 6 6 6 6 7 8 10 11 12 12 12 11 10 10 9 8 7 6 4 3 3 4 6 7 8 8 6 5 4 3 6 10 14 18 16 12 8 5 4 4 5 6 7
8 9 10 11 11 12 12 11 10 10 10 10 10 9 10 10 10 10 10 9 9 10 11 11 10 10 10 10 10 10 10 10 11 11 11 10 9 9 9 9 9 9 8 7 6 6 6 6 7 8 8 6 5 4 5 7 11 15 17 16 11 7 5 4 4 5 6 7 8
6 6 7 7 7 7 7 8 8 8 9 9 10 10 10 10 9 10 10 10 11 11 11 11 11 11 10 10 10 10 10 10 10 10 10 10 10 10 10 11 11 11 10 9 8 8 8 8 8 8 7 6 6 7 9 13 16 16 14 10 7 5 4 5 5 6 7 9 10
7 7 6 6 6 7 6 6 6 6 6 6 8 8 9 9 10 10 11 11 11 11 10 10 10 10 9 9 10 10 11 11 12 12 12 13 13 13 13 13 12 12 11 10 10 10 10 10 9 8 7 7 9 11 14 16 16 13 10 6 5 4 4 5 6 8 9 9 9
5 5 4 4 5 6 7 8 8 7 6 6 7 8 10 10 12 12 13 13 13 13 13 12 12 12 12 12 12 13 14 14 15 15 15 15 15 15 14 13 12 11 10 10 10 10 10 10 9 9 9 10 12 14 15 14 12 8 6 4 4 4 4 5 6 8 8 9 8
3 2 1 0 -0 0 2 6 9 10 10 10 9 9 10 10 12 13 14 15 15 16 16 16 16 16 16 16 15 15 16 16 16 16 16 15 15 14 14 13 12 11 10 10 10 10 9 9 9 10 11 13 14 14 12 10 7 5 4 4 4 4 5 6 6 7 7 8 8
2 1 -0 -1 -3 -4 -3 -1 3 8 12 14 13 11 10 10 11 12 13 14 15 16 16 18 18 18 17 17 17 17 16 16 16 15 15 14 14 13 12 11 11 11 10 10 10 9 9 9 10 12 13 13 12 10 8 6 5 4 4 4 4 4 5 6 6 6 7 7 6
-3 -3 -2 -2 -2 -2 -2 -4 -2 3 8 12 14 14 13 13 12 12 12 13 14 15 16 17 17 16 16 17 17 16 16 16 15 14 13 13 13 12 11 11 11 11 10 10 9 9 9 10 12 12 12 10 8 6 5 4 4 3 3 3 4 4 5 6 6 7 7 6 6
-1 -1 1 3 5 5 3 -2 -1 2 6 10 13 16 17 16 14 13 12 13 14 15 15 15 14 14 15 15 15 15 15 14 14 13 13 12 11 11 11 11 10 10 9 8 8 8 10 11 11 10 8 6 5 4 3 3 2 2 2 3 4 5 6 6 7 7 7 6 6
1 2 3 4 6 6 5 1 1 4 8 12 16 18 18 18 16 14 13 12 13 13 13 13 13 13 14 14 14 14 14 13 13 13 13 12 10 10 10 10 9 8 7 7 8 9 10 10 8 7 6 5 4 4 3 3 2 2 3 3 5 6 6 7 7 7 6 6 6
3 4 4 4 3 2 1 2 5 9 13 16 18 18 18 18 16 14 13 12 12 12 12 13 13 14 14 14 15 15 14 13 13 13 12 11 10 9 9 9 8 7 7 8 9 9 8 6 6 6 6 5 5 4 4 3 3 3 4 4 6 6 6 7 6 6 6 6 6
4 4 4 3 3 4 6 9 12 15 17 18 19 19 18 17 15 14 13 13 12 12 13 13 14 14 14 14 14 14 14 13 12 12 11 10 10 9 8 8 7 8 8 8 7 6 5 5 5 5 5 5 4 4 4 3 4 4 5 6 6 6 6 6 6 6 5 5 5
5 4 4 4 6 9 12 14 16 18 19 19 19 18 18 16 15 14 13 13 13 13 13 13 14 14 13 13 12 11 11 12 12 11 10 10 9 8 7 7 8 8 8 6 5 4 4 5 5 5 5 4 4 4 4 4 4 5 6 6 6 6 6 6 5 5 5 5 5
4 4 5 7 10 13 15 16 17 18 18 18 18 18 17 16 15 14 13 12 12 12 12 13 13 12 12 12 13 13 12 12 12 11 10 8 7 7 7 7 8 7 6 4 4 4 5 6 5 5 4 3 3 3 4 4 5 5 6 6 6 6 5 5 5 5 5 5 5
3 5 8 11 14 16 17 17 16 15 15 16 16 17 16 15 14 13 13 12 12 12 12 12 12 12 13 13 14 15 14 12 10 9 8 7 6 7 7 7 6 5 4 4 4 5 6 5 4 4 3 3 3 4 4 4 5 5 5 5 5 5 5 4 4 4 5 5 5
6 9 13 15 17 17 16 15 13 13 13 14 15 15 15 14 13 13 13 13 13 13 13 13 13 13 14 14 14 13 12 10 7 6 6 7 8 7 6 5 4 3 3 4 5 5 5 4 4 3 3 3 4 4 4 5 5 5 5 5 4 4 4 4 4 4 5 5 5
12 15 17 18 18 16 15 13 11 11 12 12 13 14 14 14 13 13 14 14 14 14 13 13 14 14 14 13 12 10 9 8 7 6 6 7 8 6 4 2 2 3 4 4 5 4 4 4 3 3 4 4 4 4 5 4 4 4 4 4 4 4 4 4 4 5 5 5 5
17 18 19 18 16 14 12 10 10 10 11 12 13 13 14 14 14 14 15 16 16 16 15 14 14 13 12 11 10 9 8 8 8 8 8 7 6 4 2 1 2 4 4 5 4 4 4 3 4 4 4 5 5 5 4 4 4 4 4 4 4 4 5 5 5 5 5 5 6
19 19 18 16 14 12 10 9 10 10 11 12 13 14 14 14 14 15 16 16 17 16 16 16 14 13 12 12 10 9 7 7 9 9 8 5 3 2 1 2 3 4 4 4 4 3 3 4 4 4 5 5 5 5 4 4 4 4 4 5 5 5 5 5 5 5 5 6 6
19 18 16 14 12 10 10 9 10 11 12 13 13 14 14 14 14 15 16 16 17 17 17 17 15 14 12 12 11 9 7 7 7 7 5 2 2 2 3 4 4 4 4 3 3 3 3 4 4 5 5 5 5 4 4 4 4 4 5 5 5 5 5 5 5 6 6 7 8
Height
3097 3097 3097 3097 3098 3099 3100 3101 3102 3104 3105 3105 3106 3107 3108 3110 3111 3111 3112 3113 3113 3113 3114 3114 3114 3115 3115 3115 3116 3116 3116 3116 3116 3116 3116 3116 3116 3116 3116 3116 3115 3115 3115 3114 3114 3113 3113 3112 3112 3111 3111 3110 3110 3109 3108 3108 3107 3106 3106 3105 3104 3103 3102 3101 3100 3099 3098 3097 3096
3095 3095 3096 3096 3097 3098 3099 3100 3101 3102 3103 3104 3105 3106 3107 3108 3109 3110 3111 3111 3112 3112 3112 3112 3113 3113 3113 3114 3114 3114 3114 3114 3115 3115 3115 3115 3114 3114 3114 3114 3114 3113 3113 3112 3112 3111 3111 3110 3110 3109 3109 3108 3108 3107 3107 3106 3105 3104 3104 3103 3102 3101 3100 3099 3098 3097 3097 3095 3094
3093 3094 3094 3095 3096 3096 3097 3098 3099 3101 3102 3102 3103 3105 3106 3107 3107 3108 3109 3109 3110 3110 3110 3111 3111 3112 3112 3112 3112 3112 3113 3113 3113 3113 3113 3113 3113 3113 3112 3112 3112 3112 3112 3111 3110 3110 3109 3108 3108 3107 3107 3107 3106 3105 3105 3104 3103 3103 3102 3101 3100 3099 3098 3097 3097 3095 3094 3093 3092
3092 3092 3093 3093 3094 3095 3096 3097 3098 3099 3100 3101 3102 3103 3104 3105 3106 3107 3107 3108 3108 3109 3109 3109 3110 3110 3110 3111 3111 3111 3111 3111 3112 3112 3112 3112 3111 3111 3111 3111 3111 3110 3110 3109 3108 3108 3107 3107 3106 3106 3105 3105 3104 3103 3103 3102 3102 3101 3100 3099 3098 3097 3096 3095 3094 3093 3092 3091 3090
3090 3091 3092 3092 3093 3094 3095 3096 3097 3098 3099 3100 3100 3101 3102 3103 3104 3105 3106 3106 3107 3107 3108 3108 3108 3108 3109 3109 3109 3109 3109 3110 3110 3110 3110 3110 3110 3110 3109 3109 3109 3108 3108 3107 3107 3106 3105 3105 3104 3104 3103 3103 3102 3102 3101 3100 3099 3098 3098 3097 3096 3095 3094 3093 3092 3091 3090 3089 3088
3089 3090 3090 3091 3092 3092 3093 3094 3095 3096 3097 3098 3099 3100 3101 3102 3103 3104 3104 3105 3106 3106 3107 3107 3107 3107 3107 3107 3107 3108 3108 3108 3108 3109 3109 3108 3108 3108 3107 3107 3107 3107 3106 3105 3105 3104 3103 3103 3102 3102 3102 3101 3100 3099 3098 3098 3097 3096 3095 3095 3094 3093 3092 3091 3090 3089 3088 3087 3086
3087 3088 3089 3090 3090 3091 3092 3093 3093 3094 3095 3096 3097 3098 3099 3101 3102 3102 3103 3104 3105 3105 3105 3105 3105 3106 3106 3106 3106 3106 3107 3107 3107 3107 3107 3107 3107 3106 3106 3106 3105 3104 3104 3103 3102 3102 3102 3101 3101 3100 3099 3099 3098 3097 3096 3096 3095 3094 3093 3092 3092 3091 3090 3089 3087 3087 3086 3084 3083
3086 3087 3087 3088 3089 3089 3090 3091 3092 3092 3093 3095 3096 3097 3098 3099 3100 3101 3102 3103 3103 3103 3104 3104 3104 3104 3104 3104 3105 3105 3105 3106 3106 3106 3105 3105 3105 3104 3104 3103 3103 3102 3101 3101 3100 3100 3100 3099 3099 3098 3097 3097 3096 3095 3094 3093 3092 3092 3091 3090 3089 3088 3087 3086 3085 3084 3083 3082 3081
3084 3085 3086 3086 3087 3088 3089 3089 3090 3091 3092 3093 3095 3096 3097 3098 3099 3100 3101 3101 3102 3102 3102 3102 3102 3103 3103 3103 3103 3103 3104 3104 3104 3104 3103 3103 3103 3102 3102 3101 3100 3100 3099 3099 3098 3098 3098 3097 3097 3096 3095 3094 3093 3092 3092 3091 3090 3089 3088 3088 3087 3086 3085 3084 3083 3082 3081 3080 3078
3082 3083 3084 3085 3085 3086 3087 3088 3089 3090 3091 3092 3094 3095 3096 3097 3098 3099 3099 3100 3100 3101 3101 3101 3101 3101 3102 3102 3102 3102 3102 3102 3102 3102 3102 3101 3101 3100 3100 3099 3098 3097 3097 3097 3097 3096 3096 3095 3094 3093 3093 3092 3091 3090 3089 3089 3088 3087 3086 3085 3084 3083 3082 3081 3080 3079 3078 3077 3076
3081 3082 3082 3083 3084 3085 3086 3087 3088 3089 3090 3091 3092 3093 3095 3096 3097 3097 3098 3099 3099 3099 3100 3100 3100 3100 3100 3100 3100 3100 3100 3100 3100 3100 3100 3099 3099 3098 3097 3097 3096 3096 3095 3095 3094 3094 3093 3092 3092 3091 3090 3089 3088 3088 3087 3087 3086 3085 3084 3083 3082 3081 3080 3079 3078 3077 3076 3075 3073
3080 3080 3081 3082 3083 3084 3085 3086 3087 3088 3089 3090 3091 3092 3093 3094 3095 3096 3097 3097 3098 3098 3098 3098 3098 3098 3098 3098 3098 3098 3098 3098 3098 3098 3097 3097 3097 3096 3095 3094 3094 3094 3093 3093 3092 3091 3091 3090 3089 3088 3087 3087 3086 3085 3085 3084 3083 3082 3082 3081 3080 3079 3077 3076 3075 3074 3073 3072 3071
3078 3079 3080 3081 3082 3083 3084 3085 3086 3087 3088 3089 3090 3091 3092 3092 3093 3094 3095 3095 3096 3096 3096 3096 3096 3096 3096 3096 3096 3096 3096 3096 3096 3096 3095 3095 3094 3093 3093 3092 3092 3092 3091 3090 3090 3089 3088 3087 3086 3086 3085 3084 3083 3083 3082 3082 3081 3080 3079 3078 3077 3076 3075 3074 3073 3072 3071 3070 3068
3077 3078 3079 3080 3081 3082 3082 3083 3084 3085 3086 3087 3088 3089 3090 3090 3091 3092 3092 3093 3093 3094 3094 3094 3094 3094 3094 3094 3094 3094 3094 3093 3093 3093 3093 3092 3092 3091 3091 3091 3090 3089 3089 3088 3087 3086 3085 3084 3083 3083 3082 3082 3081 3081 3080 3080 3079 3078 3077 3076 3075 3074 3073 3072 3071 3069 3068 3067 3066
3077 3077 3078 3078 3079 3080 3081 3082 3083 3084 3085 3086 3087 3087 3088 3088 3089 3089 3090 3090 3091 3091 3091 3091 3091 3091 3091 3091 3091 3091 3091 3091 3091 3091 3090 3090 3089 3089 3088 3088 3087 3087 3086 3085 3084 3083 3082 3082 3081 3080 3080 3079 3079 3078 3078 3077 3076 3075 3074 3074 3073 3072 3071 3069 3068 3067 3066 3064 3063
3076 3076 3077 3077 3078 3079 3080 3081 3082 3082 3083 3084 3085 3086 3086 3087 3087 3088 3088 3088 3089 3089 3089 3089 3089 3089 3089 3089 3089 3089 3089 3089 3089 3088 3088 3087 3087 3087 3086 3085 3085 3084 3083 3082 3082 3081 3080 3079 3078 3078 3077 3077 3077 3076 3075 3075 3074 3073 3072 3071 3070 3069 3068 3067 3066 3064 3063 3062 3061
3075 3076 3076 3077 3077 3078 3079 3079 3080 3081 3082 3083 3084 3084 3085 3086 3086 3087 3087 3087 3087 3087 3087 3087 3087 3087 3087 3087 3087 3087 3087 3087 3086 3086 3085 3084 3084 3084 3083 3082 3082 3081 3080 3080 3079 3078 3077 3077 3076 3076 3075 3075 3074 3074 3073 3072 3072 3071 3070 3069 3068 3067 3066 3064 3063 3062 3061 3059 3058
3074 3075 3075 3076 3076 3077 3077 3078 3079 3080 3081 3082 3082 3083 3084 3084 3085 3085 3085 3086 3086 3086 3086 3086 3086 3085 3085 3085 3085 3084 3084 3083 3082 3082 3082 3081 3081 3080 3080 3079 3079 3078 3077 3077 3077 3076 3075 3075 3074 3073 3073 3072 3072 3071 3070 3070 3069 3068 3067 3067 3065 3064 3063 3062 3060 3059 3058 3057 3056
3074 3074 3075 3075 3076 3076 3077 3077 3078 3078 3079 3080 3081 3082 3082 3083 3083 3084 3084 3084 3084 3083 3083 3083 3083 3083 3082 3082 3082 3081 3081 3080 3080 3079 3079 3078 3078 3077 3077 3077 3076 3076 3075 3075 3074 3073 3073 3072 3072 3071 3071 3070 3069 3069 3068 3067 3067 3066 3065 3064 3062 3062 3060 3059 3057 3057 3055 3054 3053
3073 3073 3074 3074 3075 3075 3076 3076 3077 3077 3078 3079 3080 3080 3081 3082 3082 3082 3082 3082 3081 3081 3081 3081 3080 3080 3080 3079 3079 3078 3078 3077 3077 3077 3076 3076 3075 3075 3075 3074 3074 3073 3073 3072 3072 3071 3071 3070 3069 3069 3068 3068 3067 3067 3066 3065 3064 3063 3062 3061 3060 3059 3057 3056 3055 3054 3053 3052 3051
3072 3072 3073 3073 3074 3074 3075 3075 3076 3077 3077 3078 3078 3079 3079 3080 3080 3080 3080 3079 3079 3079 3078 3078 3078 3077 3077 3077 3076 3076 3075 3075 3074 3074 3074 3074 3073 3073 3073 3072 3072 3072 3071 3071 3070 3069 3068 3067 3067 3067 3066 3066 3065 3064 3064 3063 3062 3061 3060 3058 3057 3056 3055 3054 3052 3052 3050 3049 3048
3071 3072 3072 3072 3073 3073 3074 3074 3075 3075 3076 3077 3077 3077 3077 3077 3077 3077 3077 3077 3076 3076 3075 3075 3074 3074 3073 3073 3073 3072 3072 3072 3072 3072 3072 3072 3072 3071 3071 3071 3070 3069 3069 3068 3067 3067 3066 3065 3065 3065 3064 3064 3063 3062 3061 3060 3059 3058 3057 3056 3055 3054 3052 3051 3050 3049 3048 3047 3046
3071 3071 3071 3072 3072 3072 3072 3073 3073 3074 3074 3075 3075 3075 3075 3075 3075 3074 3074 3073 3073 3072 3072 3072 3071 3071 3070 3070 3070 3070 3070 3070 3070 3070 3070 3070 3070 3069 3069 3068 3068 3067 3066 3066 3065 3064 3063 3063 3063 3062 3062 3061 3061 3060 3059 3058 3057 3056 3054 3053 3052 3051 3050 3049 3048 3047 3045 3044 3043
3070 3070 3070 3071 3071 3071 3072 3072 3072 3072 3072 3073 3073 3072 3072 3072 3072 3072 3071 3070 3070 3069 3069 3068 3068 3068 3068 3068 3068 3068 3068 3068 3068 3068 3068 3068 3067 3067 3066 3066 3065 3064 3064 3063 3062 3062 3061 3061 3061 3060 3059 3059 3058 3057 3056 3055 3054 3053 3052 3051 3049 3048 3047 3046 3045 3044 3042 3041 3040
3069 3069 3069 3069 3070 3070 3070 3070 3071 3071 3071 3071 3071 3070 3070 3069 3069 3069 3068 3067 3067 3067 3067 3066 3066 3066 3066 3066 3066 3066 3066 3066 3066 3066 3065 3065 3065 3064 3064 3063 3062 3062 3061 3060 3060 3059 3059 3059 3058 3057 3057 3056 3055 3054 3053 3052 3051 3050 3049 3048 3047 3046 3045 3044 3042 3041 3040 3039 3037
3068 3068 3068 3068 3068 3068 3069 3069 3069 3069 3069 3068 3068 3068 3067 3067 3067 3066 3066 3065 3065 3065 3064 3064 3064 3064 3064 3064 3064 3063 3063 3063 3063 3063 3062 3062 3062 3062 3061 3061 3060 3059 3058 3058 3057 3057 3057 3056 3056 3055 3054 3053 3052 3051 3050 3049 3048 3047 3046 3045 3044 3043 3042 3041 3040 3039 3037 3036 3035
3067 3067 3067 3067 3067 3067 3067 3067 3067 3067 3067 3066 3066 3065 3065 3064 3064 3063 3063 3062 3062 3062 3062 3062 3062 3062 3061 3061 3061 3061 3061 3060 3060 3060 3060 3059 3059 3059 3058 3058 3057 3057 3056 3056 3055 3055 3054 3054 3053 3052 3051 3051 3049 3048 3047 3046 3045 3044 3043 3042 3041 3040 3040 3038 3037 3036 3035 3034 3032
3065 3065 3065 3065 3065 3065 3065 3065 3065 3065 3064 3064 3063 3063 3062 3062 3061 3061 3060 3060 3060 3059 3059 3059 3059 3059 3059 3058 3058 3058 3058 3058 3057 3057 3057 3057 3057 3056 3056 3055 3055 3054 3054 3053 3053 3052 3052 3051 3050 3050 3049 3048 3047 3046 3045 3043 3042 3042 3041 3040 3039 3038 3037 3036 3035 3034 3032 3031 3030
3064 3064 3064 3063 3063 3063 3063 3063 3062 3062 3062 3061 3061 3060 3059 3059 3058 3058 3057 3057 3057 3057 3057 3057 3057 3056 3056 3056 3056 3055 3055 3055 3055 3055 3054 3054 3054 3054 3053 3053 3052 3052 3052 3051 3050 3050 3049 3049 3048 3047 3046 3045 3044 3043 3042 3041 3040 3039 3038 3037 3037 3035 3034 3033 3032 3031 3030 3028 3027
3062 3062 3062 3062 3062 3062 3061 3061 3061 3060 3059 3059 3058 3057 3057 3056 3056 3055 3055 3055 3055 3054 3054 3054 3054 3053 3053 3053 3053 3053 3052 3052 3052 3052 3052 3052 3052 3051 3051 3051 3050 3050 3049 3048 3048 3047 3047 3046 3045 3044 3043 3042 3041 3040 3039 3038 3037 3037 3036 3035 3034 3032 3032 3030 3029 3027 3026 3025 3024
3060 3060 3060 3060 3060 3059 3059 3059 3058 3058 3057 3056 3055 3055 3054 3054 3053 3053 3052 3052 3052 3052 3052 3052 3051 3051 3051 3051 3050 3050 3050 3050 3050 3050 3050 3049 3049 3049 3048 3048 3048 3047 3047 3046 3046 3045 3045 3044 3043 3042 3040 3039 3038 3037 3037 3036 3035 3034 3033 3032 3031 3030 3028 3027 3026 3024 3023 3022 3020
3058 3058 3058 3057 3057 3057 3057 3056 3056 3055 3054 3053 3052 3052 3052 3051 3051 3050 3050 3050 3050 3049 3049 3049 3049 3048 3048 3048 3048 3048 3048 3047 3047 3047 3047 3047 3047 3047 3046 3046 3046 3045 3044 3044 3043 3043 3042 3041 3040 3039 3037 3036 3035 3034 3033 3032 3032 3031 3030 3029 3028 3027 3025 3024 3023 3021 3020 3018 3017
3056 3056 3056 3055 3055 3054 3054 3053 3053 3052 3052 3051 3050 3050 3049 3049 3048 3048 3048 3047 3047 3047 3047 3047 3046 3046 3046 3046 3046 3046 3045 3045 3045 3045 3045 3045 3045 3044 3044 3044 3043 3043 3042 3042 3041 3040 3039 3038 3037 3036 3035 3033 3032 3031 3030 3029 3028 3027 3027 3026 3025 3024 3022 3021 3019 3018 3017 3015 3013
3054 3054 3053 3053 3052 3052 3051 3051 3050 3049 3049 3048 3048 3047 3047 3046 3046 3046 3045 3045 3045 3045 3045 3044 3044 3044 3044 3043 3043 3043 3043 3043 3043 3043 3043 3042 3042 3042 3042 3042 3041 3041 3040 3039 3039 3038 3037 3036 3034 3033 3032 3031 3030 3029 3027 3027 3025 3024 3023 3022 3021 3020 3019 3018 3016 3015 3013 3012 3010
3052 3052 3051 3051 3050 3049 3049 3048 3047 3047 3046 3046 3045 3045 3044 3044 3043 3043 3043 3043 3043 3042 3042 3042 3042 3042 3041 3041 3041 3041 3041 3041 3041 3041 3041 3041 3040 3040 3040 3039 3039 3038 3038 3037 3036 3035 3034 3033 3032 3031 3030 3029 3027 3026 3025 3024 3022 3021 3020 3019 3018 3017 3016 3014 3013 3011 3010 3008 3007
3050 3049 3049 3048 3047 3047 3046 3045 3045 3044 3044 3043 3043 3042 3042 3042 3041 3041 3041 3041 3041 3040 3040 3040 3040 3039 3039 3039 3039 3039 3039 3039 3039 3039 3039 3039 3038 3038 3038 3037 3037 3036 3035 3034 3033 3033 3032 3031 3030 3029 3027 3026 3025 3023 3022 3021 3019 3018 3017 3016 3015 3014 3012 3011 3009 3008 3007 3005 3004
3047 3047 3046 3046 3045 3044 3043 3043 3042 3042 3042 3041 3041 3040 3040 3039 3039 3039 3039 3038 3038 3038 3038 3038 3037 3037 3037 3037 3037 3037 3037 3037 3037 3037 3037 3037 3037 3036 3036 3035 3035 3034 3033 3032 3031 3031 3030 3029 3028 3027 3025 3024 3022 3021 3020 3018 3017 3015 3014 3013 3012 3011 3009 3008 3006 3005 3003 3002 3001
3045 3044 3043 3043 3042 3042 3041 3041 3040 3040 3039 3039 3038 3038 3037 3037 3037 3037 3037 3036 3036 3036 3036 3036 3036 3035 3035 3035 3035 3035 3035 3035 3035 3035 3035 3035 3035 3034 3033 3033 3032 3032 3031 3030 3029 3029 3028 3027 3026 3024 3023 3021 3020 3018 3017 3015 3013 3012 3011 3010 3008 3007 3006 3004 3003 3001 3000 2999 2997
3042 3042 3041 3040 3040 3039 3039 3038 3038 3037 3037 3037 3036 3036 3035 3035 3035 3035 3034 3034 3034 3034 3034 3034 3033 3033 3033 3033 3033 3033 3033 3033 3033 3033 3033 3033 3032 3032 3032 3031 3030 3030 3029 3028 3027 3027 3026 3024 3023 3022 3020 3019 3017 3016 3014 3012 3011 3009 3008 3007 3005 3003 3002 3001 2999 2998 2996 2995 2994
3040 3039 3038 3038 3037 3037 3036 3036 3036 3035 3035 3034 3034 3034 3033 3033 3033 3032 3032 3032 3032 3032 3032 3032 3032 3032 3032 3032 3032 3032 3032 3032 3032 3032 3032 3031 3031 3030 3030 3029 3028 3028 3027 3027 3025 3024 3023 3022 3021 3020 3018 3016 3015 3013 3011 3009 3007 3006 3005 3003 3002 3000 2998 2997 2996 2995 2993 2992 2990
3037 3037 3036 3035 3035 3035 3034 3034 3033 3033 3033 3032 3032 3032 3031 3031 3031 3031 3031 3030 3030 3030 3030 3030 3030 3030 3030 3030 3030 3030 3030 3030 3030 3030 3030 3029 3029 3028 3028 3027 3027 3026 3025 3024 3023 3022 3021 3020 3019 3017 3016 3014 3012 3010 3008 3006 3004 3003 3002 3000 2998 2997 2995 2993 2992 2991 2990 2988 2987